Retour au catalogue

STARLINK-30299

ActifCommunicationsVLEO
NORAD 57650·PAYLOAD·🇺🇸 United States

Lancé Aug 17, 2023 depuis Cape Canaveral Space Force Station

Loading…

Prochains Passages (prochaines 24 heures)

TLE

FraisSource: CelesTrak SupGP

Époque: Sep 15, 2026, 03:05 UTC

1 57650C 23122U   26258.12895833  .00016553  00000+0  59994-3 0  2581
2 57650  43.0021 102.5747 0001670 269.1146 323.8780 15.27548752    12

Suivez STARLINK-30299 en temps réel avec AllMySat

Download on the App Store